Location: Follega
(52.8850°N, 5.7362°E)
Time: 02:55:35
(UTC+00:00)

Cosmos 2228 - Pass Details

Date: 01 June 2020
Orbit: 588 x 619 km, 82.5° (Epoch: 04 July)

Event Time Altitude Azimuth Distance (km) Brightness Sun altitude
Rises 22:19:28 0° 354° (N) 2,843 8.2 -13.1°
Reaches altitude 10° 22:21:52 10° 4° (N) 1,933 6.8 -13.2°
Maximum altitude 22:25:46 34° 70° (ENE) 980 4.1 -13.4°
Enters shadow 22:28:37 16° 129° (SE) 1,556 4.6 -13.5°
